Regional Weather Roundup
Issued by NWS

Home | Current Version | Previous Version | Graphics & Text | Print | Product List | Glossary On
Versions: 1 2 3 4 5 6 7 8 9 10 11 12 13 14 15 16 17 18 19 20 21 22 23 24 25 26 27 28 29 30 31 32 33 34 35 36 37 38 39 40 41 42 43 44 45 46 47 48 49 50
296
ASUS45 KTFX 200810
RWRMT
MONTANA REGIONAL WEATHER ROUNDUP
NATIONAL WEATHER SERVICE GREAT FALLS MT
100 AM MST TUE FEB 20 2018

NOTE: "FAIR" INDICATES FEW OR NO CLOUDS BELOW 12000 FEET WITH NO
SIGNIFICANT WEATHER AND/OR OBSTRUCTIONS TO VISIBILITY.

MTZ001>007-043-200900-
WEST OF THE DIVIDE

CITY           SKY/WX    TMP DP  RH WIND       PRES   REMARKS
KALISPELL      FAIR     -15 -18  86 CALM      30.08R
MISSOULA       FAIR       0  -6  76 CALM      30.06R
BUTTE          MOCLDY   -22 -27  77 SE7       29.84R WCI -39
MULLAN PASS    FAIR      -4  -9  79 VRB3      29.78R
ANACONDA         N/A     -8 -15  71 SE5       29.89S
DEER LODGE       N/A     -6 -11  77 SE5       29.94S
HAMILTON         N/A      3   0  85 MISG      30.02S
RONAN            N/A    -17 -22  76 CALM      30.09S
$$

MTZ008-052>055-200900-
SOUTHWEST MONTANA

CITY           SKY/WX    TMP DP  RH WIND       PRES   REMARKS
BOZEMAN        FAIR      -6 -13  71 CALM      29.94S
DILLON         FAIR     -20 -21  96 S7        29.86R WCI -37
ENNIS          MOCLDY   -18 -24  76 CALM      29.90R
W YELLOWSTONE  CLOUDY   -27 -33  75 SW3       29.71R
THREE FORKS      N/A    -11 -20  64 W3        29.95R
$$

MTZ009-010-012-014-046-048-049-054-200900-
EAST SLOPES AND CENTRAL MONTANA

CITY           SKY/WX    TMP DP  RH WIND       PRES   REMARKS
CUT BANK       FAIR     -20 -25  77 W6        29.93S WCI -35
GREAT FALLS    FAIR     -16 -20  82 W12       29.96F WCI -37
MALMSTROM AFB  FAIR      -9 -14  78 W7        29.99S WCI -24
HELENA         FAIR      -7 -13  75 W5        29.99S
AUGUSTA        FAIR     -23 -28  76 NW5       29.88F
BOWMANS CRNR   FAIR     -17 -21  83 SW10      29.89S WCI -38
FAIRFIELD      FAIR     -14 -21  70 NW5       29.94R
RAYNESFORD     FAIR     -12 -16  79 CALM      29.94S
ULM            FAIR     -12 -18  75 S6        29.98S WCI -26
WHITE SULPHUR    N/A    -20 -26  76 CALM      29.86S
$$

MTZ011-013-016-021-045-047-050-051-200900-
NORTH CENTRAL MONTANA

CITY           SKY/WX    TMP DP  RH WIND       PRES   REMARKS
HAVRE          FAIR     -15 -19  82 SW12      30.08R WCI -36
LEWISTOWN      FAIR     -18 -22  82 SE7       29.91F WCI -35
N BAR RANCH    FAIR     -17 -26  63 W5        29.91F
CHINOOK          N/A    -15 -18  84 CALM      30.10F
GEYSER         FAIR      -9 -16  69 W6        29.91S WCI -22
WINIFRED       FAIR      -9 -13  82 SW5       29.95F
$$

MTZ017>020-022>027-061-062-200900-
NORTHEAST MONTANA

CITY           SKY/WX    TMP DP  RH WIND       PRES   REMARKS
GLASGOW        CLOUDY    -6 -11  79 CALM      30.11S
GLENDIVE       LGT SNOW   2  -2  83 NW5       30.10F FOG
JORDAN           N/A     -6 -11  79 CALM      30.07F
MALTA          CLOUDY   -22 -27  76 W6        30.11F WCI -38
SIDNEY         LGT SNOW   1  -3  83 S3        30.15F FOG
WOLF POINT     CLOUDY    -1  -7  75 W8        30.15F HAZE    WCI -15
PLENTYWOOD       N/A      0  -6  78 CALM      30.08F
POPLAR           N/A      0  -6  78 W6        30.14F WCI -12
$$

MTZ028>42-056>058-200900-
SOUTHCENTRAL AND SOUTHEAST MONTANA

CITY           SKY/WX    TMP DP  RH WIND       PRES   REMARKS
BAKER          CLOUDY    -4  -7  87 W7        30.03R WCI -18
BILLINGS       FAIR      -7 -10  87 SW9       30.00S WCI -24
LIVINGSTON     CLOUDY   -13 -18  78 W7        29.90S WCI -29
MILES CITY     LGT SNOW  -1  -4  87 S3        30.09R FOG
BIG TIMBER     CLEAR    -18 -22  83 CALM      29.94S
FORSYTH          N/A     -2  -6  84 W7        30.08S WCI -16
HARLOWTON      FAIR     -18 -25  70 W10       29.91F WCI -38
LAUREL           N/A    -17 -20  83 W9        30.03S WCI -36
$$

REGIONAL REPORTS...DAKOTAS

CITY           SKY/WX    TMP DP  RH WIND       PRES   REMARKS
WILLISTON      FLURRIES   2  -3  80 S6        30.12F WCI  -9
MINOT          LGT SNOW   4  -1  80 NW6       30.10F WCI  -7
DICKINSON      CLOUDY     0  -4  83 NW7       30.02F WCI -13
BEACH          FLURRIES   0  -4  85 W7        30.08R WCI -13
CROSBY         MOCLDY     0  -6  78 W8        30.11F WCI -15
TIOGA          FAIR       1   0  92 W5        30.09F FOG
WATFORD CITY   CLOUDY     1  -2  85 W5        30.11F FOG
BISMARCK       FLURRIES   4  -1  80 N10       30.10F WCI -11
GRAND FORKS    MOCLDY     5   0  79 N15       30.14S WCI -13
FARGO          LGT SNOW   6   2  83 N18       30.05F VSB 1   WCI -13
BUFFALO SD       N/A      0  -5  79 NW6       29.95R WCI -12
RAPID CITY     LGT SNOW  -1  -6  79 N13       29.98S WCI -19
$$

REGIONAL REPORTS...WYOMING/IDAHO/WASHINGTON

CITY           SKY/WX    TMP DP  RH WIND       PRES   REMARKS
GILLETTE       FAIR     -11 -16  78 W10       29.90F WCI -30
SHERIDAN       CLOUDY    -2  -8  76 W7        29.97R WCI -15
BUFFALO WY     CLOUDY    -5 -11  75 NW6       29.85F WCI -18
CODY           FAIR     -13 -18  78 S10       29.87R WCI -32
YELLOWSTONE LA   N/A    -26 -30  81 CALM      29.63R
IDAHO FALLS    CLOUDY    11  -3  53 N8        29.84R WCI  -1
SALMON         MOCLDY    10   2  69 CALM      29.92R
BOISE          FAIR      15   3  59 W10       30.04R WCI   2
SPOKANE        MOCLDY     8  -1  66 SE6       30.11R WCI  -2
$$

REGIONAL REPORTS...ALBERTA

CITY           SKY/WX    TMP DP  RH WIND       PRES   REMARKS
CALGARY        MOCLDY     5  -8  56 W3        29.91S
CARDSTON         N/A    -18 -26  69 SE8         N/A  WCI -37
EDMONTON       CLEAR      5 -11  47 W9        29.93R WCI  -9
FORT MCMURRAY  CLOUDY    -9 -15  77 NW8       30.09R WCI -26
HIGH LEVEL     FLURRIES  -8 -15  71 N8        30.21R WCI -23
LETHBRIDGE     CLEAR    -18 -26  69 SW8       29.99S WCI -37
LLOYDMINSTER   CLOUDY     7   0  72 W16       29.86S WCI -11
MEDICINE HAT   CLEAR     -9 -15  77 SW14      30.05  WCI -31
MILK RIVER       N/A    -24 -31  69 NW8         N/A  WCI -43
ONEFOUR          N/A    -17 -20  83 CALM        N/A
PEACE RIVER    CLOUDY    10   0  61 NE8       30.02R WCI  -1
PINCHER CREEK  CLEAR    -15 -18  84 NW9       29.93S WCI -33
WATERTON GATE    N/A      0  -9  65 S15         N/A  WCI -20
$$

REGIONAL REPORTS...SASKATCHEWAN

CITY           SKY/WX    TMP DP  RH WIND       PRES   REMARKS
CORONACH         N/A     -4  -8  84 E3          N/A
CYPRESS HILLS    N/A    -11 -17  77 W3          N/A
ESTEVAN        CLOUDY    -2  -8  78 W7        30.11F WCI -16
MOOSE JAW        N/A     -8 -13  77 W8          N/A  WCI -23
PRINCE ALBERT  PTCLDY    -8 -13  77 SW7       29.98S WCI -22
REGINA         MOCLDY    -9 -15  77 SW12      30.06F WCI -29
ROCKGLEN         N/A     -6 -11  77 SW9         N/A  WCI -22
SASKATOON      FLURRIES  -2  -9  71 SW13      29.99F WCI -21
SWIFT CURRENT  CLEAR     -9 -17  70 SW8       29.97S WCI -26
VAL MARIE        N/A    -18 -26  69 SW3         N/A
$$




USA.gov is the U.S. government's official web portal to all federal, state and local government web resources and services.